[[{"header":{"parameterUnit":"m.s-1","parameterCategory":1,"la1":30.2991,"la2":30.254,"lo1":-89.0895,"lo2":-89.0444,"dy":0.0017,"dx":0.0017,"nx":28,"ny":28,"refTime":"2023-11-12T03:00:00:Z","depth":0,"parameterNumber":2,"parameterNumberName":"U-component_of_WINDS"},"data":[0,0,0,0,0,0,0,0,0,0,0,0,0,0,0,0,0,0,0,0,0,0,0,0,0,0,0,0,0,0,0,0,0,0,0,0,0,0,0,0,0,0,0,0,0,0,0,0,0,0,0,0,0,0,0,0,0,0,-1.5296,-1.5296,0,-1.5347,-1.5347,-1.5348,-1.5319,-1.5318,-1.5316,-1.5315,-1.5369,-1.5371,-1.5374,0,0,0,0,0,0,0,0,0,0,0,0,0,-1.5175,-1.5177,-1.5296,-1.5296,-1.5297,-1.5347,-1.5347,-1.5348,-1.5319,-1.5318,-1.5316,-1.5314,-1.5368,-1.5371,-1.5374,0,0,0,0,0,0,0,0,0,0,0,0,0,-1.5227,-1.5178,-1.5296,-1.5289,-1.5289,-1.5346,-1.5347,-1.5348,-1.532,-1.5318,-1.5316,-1.5314,-1.5367,-1.5371,-1.5375,-1.5443,0,0,-1.5387,-1.5389,0,0,0,0,0,0,0,0,-1.5224,-1.5231,-1.5289,-1.5289,-1.5289,-1.5324,-1.5324,-1.538,-1.532,-1.5308,-1.5315,-1.5313,-1.5356,-1.5361,-1.5375,-1.5445,-1.5448,-1.5388,-1.539,-1.5392,-1.5393,0,0,0,0,0,0,0,-1.522,-1.5229,-1.5316,-1.529,-1.529,-1.5283,-1.5288,-1.5335,-1.5343,-1.5309,-1.5307,-1.5313,-1.5355,-1.5371,-1.5376,-1.5448,-1.5388,-1.5391,-1.5394,-1.5395,-1.5577,-1.5579,0,0,0,0,0,0,-1.5217,-1.5226,-1.5314,-1.5317,-1.525,-1.5287,-1.5293,-1.5315,-1.5343,-1.5345,-1.5315,-1.5312,-1.5365,-1.5371,-1.5378,-1.5459,-1.5392,-1.5396,-1.5398,-1.5575,-1.5577,-1.558,0,0,0,0,0,0,-1.5214,-1.5225,-1.5312,-1.5271,-1.5282,-1.5292,-1.5317,-1.5317,-1.5333,-1.5347,-1.5349,-1.5329,-1.5364,-1.5372,-1.5427,-1.5461,-1.5398,-1.5401,-1.5572,-1.5575,-1.5579,-1.5623,0,0,0,0,0,0,-1.5211,-1.5224,-1.525,-1.5272,-1.5284,-1.536,-1.5319,-1.532,-1.534,-1.5336,-1.5361,-1.5363,-1.5363,-1.5421,-1.5431,-1.5465,-1.5405,-1.5569,-1.5573,-1.5578,-1.5619,-1.5628,-1.5635,0,0,0,0,0,-1.5207,-1.5261,-1.5252,-1.5262,-1.5316,-1.5362,-1.5369,-1.5367,-1.5343,-1.5369,-1.5378,-1.5362,-1.5455,-1.5427,-1.5438,-1.5474,-1.5567,-1.5572,-1.5577,-1.5615,-1.5626,-1.5635,0,0,0,0,0,0,-1.5244,-1.5264,-1.5254,-1.5316,-1.5338,-1.5357,-1.539,-1.5379,-1.5408,-1.5403,-1.5399,-1.5405,-1.5462,-1.5473,-1.5441,-1.5541,-1.5507,-1.5515,-1.5532,-1.5543,-1.5551,-1.5548,-1.5408,0,0,0,0,0,-1.5259,-1.5294,-1.531,-1.5364,-1.5375,-1.5381,-1.5401,-1.5397,-1.5419,-1.5428,-1.5441,-1.5464,-1.5498,-1.5521,-1.5553,-1.562,-1.5625,-1.565,-1.5658,-1.5665,-1.5672,-1.5709,-1.572,-1.5597,-1.5597,-1.5597,0,0,-1.5291,-1.5306,-1.5329,-1.5371,-1.5388,-1.5425,-1.5389,-1.5429,-1.5457,-1.5435,-1.5487,-1.5497,-1.5522,-1.5583,-1.5611,-1.5594,-1.5707,-1.5672,-1.5677,-1.5681,-1.5715,-1.5727,-1.5737,-1.5601,-1.56,-1.56,0,0,-1.5369,-1.5384,-1.5431,-1.5447,-1.5472,-1.5475,-1.5486,-1.5508,-1.5513,-1.5566,-1.555,-1.5582,-1.5641,-1.566,-1.5677,-1.576,-1.5747,-1.5771,-1.5815,-1.5851,-1.586,-1.5869,-1.5899,-1.591,-1.5778,-1.5778,-1.5778,0,-1.5406,-1.5461,-1.5456,-1.5498,-1.5517,-1.5498,-1.5545,-1.5561,-1.5596,-1.561,-1.559,-1.5663,-1.5679,-1.5744,-1.5764,-1.5778,-1.5791,-1.5769,-1.5859,-1.5868,-1.5876,-1.5905,-1.5916,-1.5781,-1.578,-1.578,-1.578,0,-1.5506,-1.5544,-1.5579,-1.5612,-1.5634,-1.5679,-1.5681,-1.5705,-1.5698,-1.5704,-1.5758,-1.5775,-1.581,-1.5825,-1.582,-1.589,-1.5879,-1.5859,-1.5825,-1.589,-1.5918,-1.5929,-1.5785,-1.5784,-1.5783,-1.5782,0,0,-1.561,-1.5639,-1.5652,-1.5666,-1.5691,-1.5721,-1.5764,-1.5798,-1.5819,-1.5843,-1.5879,-1.5929,-1.5911,-1.593,-1.5927,-1.5958,-1.6023,-1.5934,-1.5935,-1.5951,-1.6102,-1.6117,-1.613,-1.6014,-1.6016,-1.6018,-1.61,0,-1.569,-1.5766,-1.5762,-1.5833,-1.5868,-1.5849,-1.5887,-1.5907,-1.5913,-1.5944,-1.595,-1.5986,-1.5959,-1.5971,-1.6,-1.6009,-1.6054,-1.6003,-1.6049,-1.605,-1.6044,-1.6144,-1.616,-1.6237,-1.611,-1.6112,-1.6113,0,-1.5794,-1.5821,-1.5895,-1.5915,-1.5929,-1.5963,-1.5994,-1.6023,-1.6045,-1.6047,-1.6068,-1.606,-1.6104,-1.6067,-1.6128,-1.6094,-1.6112,-1.6119,-1.6122,-1.6127,-1.6087,-1.6153,-1.6261,-1.6273,-1.613,-1.6129,-1.6127,0,-1.5864,-1.5918,-1.5969,-1.5982,-1.6006,-1.6031,-1.6042,-1.6061,-1.6082,-1.6109,-1.6122,-1.6153,-1.6171,-1.6196,-1.6196,-1.6169,-1.6257,-1.6221,-1.6261,-1.6261,-1.6282,-1.628,-1.6395,-1.6292,-1.6291,-1.6291,-1.6291,0,-1.5954,-1.6001,-1.6001,-1.6033,-1.6084,-1.6079,-1.613,-1.6139,-1.6156,-1.6189,-1.6175,-1.6207,-1.6204,-1.6236,-1.6236,-1.6286,-1.6294,-1.6298,-1.6297,-1.63,-1.6299,-1.6312,-1.6308,-1.6294,-1.6294,-1.6293,-1.6292,0,-1.6041,-1.6043,-1.6098,-1.6116,-1.6121,-1.6158,-1.6174,-1.6204,-1.6208,-1.625,-1.626,-1.6267,-1.6303,-1.6305,-1.6348,-1.6348,-1.6409,-1.6403,-1.6402,-1.6401,-1.6441,-1.6438,-1.657,-1.6587,-1.6471,-1.6472,-1.6473,0,-1.6099,-1.6134,-1.6156,-1.6177,-1.6189,-1.6223,-1.6244,-1.624,-1.6262,-1.6289,-1.6316,-1.6351,-1.6379,-1.6439,-1.6448,-1.648,-1.6475,-1.6519,-1.648,-1.6481,-1.6476,-1.6475,-1.6478,-1.6527,-1.6528,-1.6529,-1.653,0,-1.6203,-1.6202,-1.6232,-1.6262,-1.6287,-1.6311,-1.6333,-1.6351,-1.635,-1.6376,-1.6413,-1.6435,-1.6477,-1.6513,-1.6544,-1.6555,-1.6543,-1.6542,-1.6553,-1.6556,-1.6555,-1.6557,-1.6424,-1.6539,-1.6538,-1.6538,-1.6537,-1.6537,-1.6278,-1.6308,-1.6328,-1.6362,-1.6378,-1.6399,-1.6428,-1.6435,-1.6466,-1.65,-1.6496,-1.6537,-1.6557,-1.6598,-1.6612,-1.6644,-1.6629,-1.6645,-1.665,-1.6654,-1.6658,-1.6548,-1.665,-1.665,-1.6649,-1.6649,-1.6649,0,-1.6381,-1.6393,-1.6424,-1.6455,-1.6482,-1.6466,-1.649,-1.6513,-1.655,-1.6569,-1.6597,-1.6639,-1.6673,-1.6684,-1.6717,-1.6741,-1.6736,-1.675,-1.6749,-1.6752,-1.667,-1.6657,-1.6753,-1.6753,-1.6753,-1.6753,-1.6753,-1.6753,-1.6438,-1.6489,-1.649,-1.6548,-1.6559,-1.6599,-1.6614,-1.6633,-1.6649,-1.6697,-1.6725,-1.6731,-1.6748,-1.6782,-1.6812,-1.6814,-1.6827,-1.6844,-1.6844,-1.6768,-1.6757,-1.6747,-1.6736,-1.6847,-1.6847,-1.6923,-1.6924,-1.6925]},{"header":{"parameterUnit":"m.s-1","parameterCategory":1,"la1":30.2991,"la2":30.254,"lo1":-89.0895,"lo2":-89.0444,"dy":0.0017,"dx":0.0017,"nx":28,"ny":28,"refTime":"2023-11-12T03:00:00:Z","depth":0,"parameterNumber":3,"parameterNumberName":"V-component_of_WINDS"},"data":[0,0,0,0,0,0,0,0,0,0,0,0,0,0,0,0,0,0,0,0,0,0,0,0,0,0,0,0,0,0,0,0,0,0,0,0,0,0,0,0,0,0,0,0,0,0,0,0,0,0,0,0,0,0,0,0,0,0,-4.3123,-4.3123,0,-4.3202,-4.3203,-4.3204,-4.3162,-4.316,-4.3157,-4.3155,-4.3233,-4.3237,-4.3241,0,0,0,0,0,0,0,0,0,0,0,0,0,-4.2928,-4.2932,-4.3122,-4.3123,-4.3125,-4.3202,-4.3203,-4.3204,-4.3162,-4.3159,-4.3157,-4.3154,-4.3231,-4.3236,-4.3241,0,0,0,0,0,0,0,0,0,0,0,0,0,-4.3011,-4.2933,-4.3122,-4.3113,-4.3113,-4.3202,-4.3203,-4.3205,-4.3163,-4.3159,-4.3156,-4.3153,-4.323,-4.3236,-4.3242,-4.3343,0,0,-4.326,-4.3263,0,0,0,0,0,0,0,0,-4.3006,-4.3018,-4.3113,-4.3114,-4.3114,-4.3169,-4.3163,-4.3251,-4.3163,-4.3144,-4.3155,-4.3152,-4.3214,-4.3221,-4.3243,-4.3347,-4.335,-4.3261,-4.3264,-4.3267,-4.3269,0,0,0,0,0,0,0,-4.3001,-4.3014,-4.3154,-4.3115,-4.3115,-4.3103,-4.3111,-4.318,-4.3195,-4.3145,-4.3142,-4.3152,-4.3213,-4.3237,-4.3244,-4.3352,-4.3261,-4.3266,-4.327,-4.3272,-4.3543,-4.3546,0,0,0,0,0,0,-4.2996,-4.301,-4.3151,-4.3156,-4.3051,-4.3109,-4.3118,-4.3154,-4.3195,-4.3198,-4.3155,-4.315,-4.3228,-4.3237,-4.3247,-4.3369,-4.3267,-4.3273,-4.3276,-4.3539,-4.3544,-4.3548,0,0,0,0,0,0,-4.2992,-4.3009,-4.3148,-4.3082,-4.3099,-4.3116,-4.3157,-4.3158,-4.3182,-4.3202,-4.3204,-4.3177,-4.3226,-4.3238,-4.332,-4.3371,-4.3275,-4.3281,-4.3535,-4.3541,-4.3546,-4.3614,0,0,0,0,0,0,-4.2987,-4.3008,-4.3048,-4.3084,-4.3103,-4.3222,-4.316,-4.3162,-4.3193,-4.3187,-4.3223,-4.3226,-4.3224,-4.3311,-4.3326,-4.3378,-4.3286,-4.3531,-4.3538,-4.3544,-4.3607,-4.3621,-4.3633,0,0,0,0,0,-4.298,-4.3063,-4.305,-4.3067,-4.3154,-4.3225,-4.3236,-4.3233,-4.3197,-4.3237,-4.325,-4.3225,-4.3363,-4.332,-4.3336,-4.339,-4.3528,-4.3536,-4.3543,-4.3601,-4.3618,-4.3632,0,0,0,0,0,0,-4.3031,-4.3067,-4.3054,-4.3151,-4.3185,-4.3217,-4.3267,-4.3251,-4.3295,-4.3288,-4.3281,-4.329,-4.3375,-4.339,-4.3342,-4.3491,-4.3439,-4.3451,-4.3478,-4.3494,-4.3506,-4.3501,-4.3291,0,0,0,0,0,-4.3054,-4.311,-4.3138,-4.3221,-4.324,-4.3251,-4.3282,-4.3277,-4.3311,-4.3325,-4.3344,-4.3378,-4.3428,-4.3462,-4.351,-4.3609,-4.3616,-4.3654,-4.3667,-4.3677,-4.3687,-4.3741,-4.3758,-4.3574,-4.3574,-4.3574,0,0,-4.3101,-4.3128,-4.3164,-4.3232,-4.3258,-4.3316,-4.3263,-4.3326,-4.3368,-4.3334,-4.3413,-4.3428,-4.3465,-4.3556,-4.3597,-4.3572,-4.374,-4.3687,-4.3696,-4.37,-4.3751,-4.3768,-4.3784,-4.3579,-4.3578,-4.3577,0,0,-4.3217,-4.3243,-4.3316,-4.3343,-4.3384,-4.3391,-4.3408,-4.3443,-4.3452,-4.3532,-4.3508,-4.3557,-4.3644,-4.3671,-4.3697,-4.3823,-4.3801,-4.3838,-4.3905,-4.3957,-4.3972,-4.3984,-4.4029,-4.4046,-4.3848,-4.3848,-4.3848,0,-4.327,-4.3357,-4.3354,-4.342,-4.345,-4.3424,-4.3496,-4.3522,-4.3576,-4.3597,-4.3568,-4.3678,-4.37,-4.3798,-4.3829,-4.385,-4.3869,-4.3834,-4.397,-4.3983,-4.3995,-4.4038,-4.4055,-4.3853,-4.3852,-4.3852,-4.3851,0,-4.3421,-4.3481,-4.3534,-4.3589,-4.3625,-4.3694,-4.37,-4.3737,-4.3729,-4.3738,-4.3819,-4.3845,-4.3898,-4.3921,-4.3913,-4.4017,-4.4,-4.3971,-4.3919,-4.4017,-4.4057,-4.4073,-4.3859,-4.3857,-4.3856,-4.3855,0,0,-4.3571,-4.3624,-4.3643,-4.3668,-4.371,-4.3756,-4.3823,-4.3876,-4.3908,-4.3945,-4.4,-4.4075,-4.4049,-4.4078,-4.4072,-4.4118,-4.4216,-4.4083,-4.4084,-4.4107,-4.4332,-4.4354,-4.4374,-4.4202,-4.4206,-4.4208,-4.4329,0,-4.369,-4.3809,-4.3808,-4.3917,-4.3973,-4.3948,-4.4006,-4.4038,-4.4049,-4.4096,-4.4106,-4.416,-4.4121,-4.4138,-4.4182,-4.4195,-4.4262,-4.4186,-4.4253,-4.4255,-4.4245,-4.4395,-4.4418,-4.4531,-4.4345,-4.4348,-4.435,0,-4.3844,-4.3889,-4.4005,-4.404,-4.4063,-4.4115,-4.4164,-4.421,-4.4245,-4.4249,-4.4282,-4.4269,-4.4335,-4.4282,-4.4372,-4.4321,-4.4348,-4.4358,-4.4363,-4.4369,-4.4309,-4.4405,-4.4568,-4.4585,-4.4374,-4.4372,-4.4371,0,-4.3943,-4.4032,-4.4112,-4.4134,-4.4177,-4.4214,-4.4233,-4.4265,-4.4297,-4.4339,-4.436,-4.4408,-4.4435,-4.4472,-4.4472,-4.4433,-4.4564,-4.451,-4.4569,-4.4569,-4.4598,-4.4596,-4.4767,-4.4614,-4.4614,-4.4614,-4.4614,0,-4.4076,-4.4148,-4.4157,-4.4207,-4.4286,-4.4284,-4.4361,-4.4377,-4.4405,-4.4456,-4.4437,-4.4485,-4.4483,-4.4531,-4.4532,-4.4607,-4.4619,-4.4623,-4.4622,-4.4625,-4.4625,-4.4643,-4.4635,-4.4618,-4.4617,-4.4617,-4.4616,0,-4.42,-4.4209,-4.4295,-4.4329,-4.434,-4.4396,-4.4424,-4.4471,-4.448,-4.4544,-4.4559,-4.4573,-4.4629,-4.4633,-4.4697,-4.4697,-4.4788,-4.4778,-4.4777,-4.4775,-4.4834,-4.4829,-4.5023,-4.5048,-4.4879,-4.4881,-4.4882,0,-4.4284,-4.4339,-4.4379,-4.4413,-4.4435,-4.4489,-4.4523,-4.4522,-4.4557,-4.4601,-4.4642,-4.4696,-4.474,-4.483,-4.4844,-4.4893,-4.4884,-4.4949,-4.4891,-4.4893,-4.4886,-4.4883,-4.4888,-4.496,-4.4962,-4.4964,-4.4965,0,-4.4433,-4.4436,-4.4485,-4.4537,-4.4577,-4.4617,-4.4654,-4.4682,-4.4686,-4.4726,-4.4784,-4.4817,-4.4884,-4.4937,-4.4985,-4.5003,-4.4985,-4.4983,-4.4999,-4.5003,-4.5,-4.5003,-4.4808,-4.4979,-4.4977,-4.4976,-4.4976,-4.4975,-4.454,-4.4588,-4.4624,-4.468,-4.4708,-4.4743,-4.4789,-4.4804,-4.4853,-4.4908,-4.4904,-4.4968,-4.5,-4.5063,-4.5085,-4.5133,-4.5111,-4.5135,-4.5141,-4.5147,-4.5153,-4.4992,-4.5142,-4.5142,-4.5141,-4.5141,-4.5141,0,-4.4689,-4.4711,-4.4762,-4.4816,-4.486,-4.484,-4.488,-4.4917,-4.4974,-4.5007,-4.5051,-4.5117,-4.5169,-4.5188,-4.5238,-4.5274,-4.5267,-4.5287,-4.5285,-4.5289,-4.517,-4.5151,-4.5292,-4.5292,-4.5292,-4.5292,-4.5292,-4.5292,-4.4771,-4.4851,-4.4858,-4.4951,-4.4972,-4.5036,-4.506,-4.5092,-4.5119,-4.5194,-4.5238,-4.5251,-4.5278,-4.533,-4.5376,-4.538,-4.54,-4.5424,-4.5424,-4.5313,-4.5297,-4.5283,-4.5265,-4.5428,-4.5428,-4.554,-4.5541,-4.5541]}]]